Santa Maria, CA

4:40 PM PDT on May 28, 2017 (GMT -0700)
Santa Maria Public Airport / Captain G. Allan Hancock Field

Weather History for KSMX - November, 2012

Change the Weather History Date:

Tuesday, November 13, 2012

  Actual Average Record
Temperature  
Mean Temperature 58 °F 56 °F  
Max Temperature 79 °F 69 °F 91 °F (1949)
Min Temperature 37 °F 43 °F 27 °F (2000)
Degree Days  
Heating Degree Days 7 9  
Month to date heating degree days 93 101  
Since 1 July heating degree days 351 465  
Cooling Degree Days 0 0  
Month to date cooling degree days 16 0  
Year to date cooling degree days 120 100  
Growing Degree Days 8 (Base 50)    
Moisture  
Dew Point 33 °F    
Average Humidity 48    
Maximum Humidity 79    
Minimum Humidity 16    
Precipitation  
Precipitation 0.00 in 0.04 in 1.21 in (1955)
Month to date precipitation 0.11 0.52  
Year to date precipitation 7.56 11.02  
Since 1 July precipitation 0.36  
Sea Level Pressure  
Sea Level Pressure 30.09 in    
Wind  
Wind Speed 4 mph (SE)    
Max Wind Speed 9 mph    
Max Gust Speed 14 mph    
Visibility 10 miles    
Events      
T = Trace of Precipitation, MM = Missing Value Source: NWS Daily Summary

Daily Weather History Graph

Daily Weather History Graph

Search for Another Location

Airport or City:

Trip Planner

Search our weather history database for the weather conditions in past years. The results will help you decide how hot, cold, wet, or windy it might be!

Date:

Astronomy

Nov. 13, 2012 Rise Set
Actual Time 6:34 AM PST 4:57 PM PST
Civil Twilight 6:07 AM PST 5:24 PM PST
Nautical Twilight 5:37 AM PST 5:54 PM PST
Astronomical Twilight 5:07 AM PST 6:24 PM PST
Moon 6:18 AM PST (11/13) 4:56 PM PST (11/13)
Length of Visible Light 11h 16m
Length of Day
10h 22m
Waning Crescent, 0% of the Moon is Illuminated
Nov 13
Waning Crescent
Nov 13
New
Nov 20
First Quarter
Nov 28
Full
Dec 6
Last Quarter

Hourly Weather History & Observations

Time (PST) Temp. Windchill Dew Point Humidity Pressure Visibility Wind Dir Wind Speed Gust Speed Precip Events Conditions
12:51 AM 43.0 °F 40.3 °F 34.0 °F 71% 30.16 in 6.0 mi SSE 4.6 mph - N/A   Haze
1:51 AM 42.1 °F - 34.0 °F 73% 30.17 in 7.0 mi Calm Calm - N/A   Clear
2:51 AM 41.0 °F 38.0 °F 33.1 °F 73% 30.16 in 9.0 mi ESE 4.6 mph - N/A   Clear
3:51 AM 39.9 °F 37.8 °F 32.0 °F 73% 30.15 in 10.0 mi SSE 3.5 mph - N/A   Clear
4:51 AM 39.9 °F - 33.1 °F 77% 30.14 in 10.0 mi Calm Calm - N/A   Clear
5:51 AM 37.9 °F 35.5 °F 30.9 °F 76% 30.14 in 10.0 mi SE 3.5 mph - N/A   Clear
6:51 AM 41.0 °F 39.0 °F 30.9 °F 67% 30.14 in 10.0 mi ESE 3.5 mph - N/A   Clear
7:51 AM 48.0 °F - 34.0 °F 58% 30.15 in 10.0 mi Calm Calm - N/A   Clear
8:51 AM 59.0 °F - 30.9 °F 35% 30.14 in 10.0 mi Calm Calm - N/A   Clear
9:51 AM 66.9 °F - 28.9 °F 24% 30.12 in 10.0 mi Variable 3.5 mph - N/A   Clear
10:51 AM 73.0 °F - 28.0 °F 19% 30.10 in 10.0 mi North 4.6 mph - N/A   Clear
11:51 AM 77.0 °F - 28.9 °F 17% 30.08 in 10.0 mi Variable 4.6 mph - N/A   Clear
12:51 PM 78.1 °F - 30.0 °F 17% 30.05 in 10.0 mi WNW 6.9 mph - N/A   Clear
1:51 PM 77.0 °F - 33.1 °F 20% 30.05 in 10.0 mi NNW 8.1 mph - N/A   Clear
2:51 PM 75.9 °F - 30.0 °F 19% 30.04 in 10.0 mi NW 6.9 mph - N/A   Clear
3:51 PM 73.9 °F - 30.0 °F 20% 30.04 in 10.0 mi NNW 6.9 mph - N/A   Clear
4:51 PM 63.0 °F - 42.1 °F 46% 30.04 in 10.0 mi WSW 3.5 mph - N/A   Clear
5:51 PM 60.1 °F - 39.0 °F 46% 30.05 in 10.0 mi Calm Calm - N/A   Clear
6:51 PM 55.9 °F - 39.0 °F 53% 30.05 in 10.0 mi ESE 3.5 mph - N/A   Clear
7:51 PM 54.0 °F - 36.0 °F 51% 30.04 in 10.0 mi Calm Calm - N/A   Clear
8:51 PM 50.0 °F - 37.0 °F 61% 30.05 in 10.0 mi ESE 3.5 mph - N/A   Clear
9:51 PM 48.0 °F - 37.9 °F 68% 30.06 in 10.0 mi East 4.6 mph - N/A   Clear
10:51 PM 46.9 °F - 36.0 °F 66% 30.06 in 10.0 mi SE 3.5 mph - N/A   Clear
11:51 PM 48.0 °F - 34.0 °F 58% 30.06 in 10.0 mi South 3.5 mph - N/A   Clear